Location: Eagle Observatory
(42.5300°N, 88.2800°W)
Time: 23:30:38
(UTC-06:00)

Hubble Space Telescope - Visible Passes

Search period start: 25 February 2017 00:00
Search period end: 07 March 2017 00:00
Orbit: 538 x 542 km, 28.5° (Epoch: 25 February)

Date Brightness Start Highest point End Pass type
(mag) Time Alt. Az. Time Alt. Az. Time Alt. Az.
27 Feb 3.3 19:38:11 10° SSW 19:38:56 11° S 19:38:56 11° S visible
28 Feb 3.2 19:28:01 10° SSW 19:29:23 11° S 19:29:36 11° S visible
01 Mar 3.2 19:18:00 10° SSW 19:19:16 11° S 19:20:16 10° S visible
02 Mar 3.3 19:08:09 10° SSW 19:09:08 11° S 19:10:08 10° S visible
03 Mar 3.5 18:58:53 10° S 18:59:00 10° S 18:59:08 10° S visible
